Location: Foligno
(42.9600°N, 12.7050°E)
Time: 18:03:35
(UTC+02:00)

ISS - Pass Details

Date: 21 May 2018
Orbit: 402 x 407 km, 51.6° (Epoch: 23 May)

Event Time Altitude Azimuth Distance (km) Brightness Sun altitude
Rises 00:43:41 0° 283° (WNW) 2,317 0.3 -26.7°
Reaches altitude 10° 00:46:09 10° 302° (WNW) 1,458 -0.6 -26.8°
Maximum altitude 00:48:36 19° 351° (N) 1,026 -1.0 -26.8°
Drops below altitude 10° 00:51:04 10° 40° (NE) 1,458 -0.5 -26.8°
Sets 00:53:33 0° 58° (ENE) 2,318 0.4 -26.9°
